Overview Statistics Trail Chart Weather Telemetry Raw packets
 

This is the latest recevied weather packets stored in our database for station/object S51UL-6. If no packets are shown the sender has not sent any weather packets the latest 10 day(s).

<< 2 3 4 5 6 7 8 >>
Time Temp. Humidity Pressure Rain* Wind** Luminosity Snow
1788657623 13.89° C 90% 1025 hPa 196.85 mm - - -
1788657323 13.89° C 90% 1025 hPa 197.36 mm - - -
1788656723 14.44° C 90% 1025 hPa 217.17 mm - - -
1788656423 14.44° C 90% 1025 hPa 231.14 mm - - -
1788656123 14.44° C 90% 1024.9 hPa 228.6 mm - - -
1788655824 14.44° C 90% 1024.9 hPa 184.66 mm - - -
1788655523 14.44° C 90% 1025 hPa 225.04 mm - - -
1788654924 14.44° C 90% 1024.9 hPa 206.25 mm - - -
1788654623 14.44° C 90% 1024.8 hPa 226.57 mm - - -
1788654323 14.44° C 90% 1024.9 hPa 231.65 mm - - -
1788654024 14.44° C 90% 1024.8 hPa 231.65 mm - - -
1788653723 14.44° C 90% 1024.7 hPa 213.61 mm - - -
1788653423 14.44° C 90% 1024.7 hPa 218.19 mm - - -
1788653130 14.44° C 90% 1024.6 hPa 241.55 mm - - -
1788652825 14.44° C 90% 1024.6 hPa 245.11 mm - - -
1788652524 14.44° C 90% 1024.5 hPa 245.11 mm - - -
1788651624 14.44° C 90% 1024.4 hPa 241.55 mm - - -
1788651042 14.44° C 90% 1024.4 hPa 224.28 mm - - -
1788650726 14.44° C 90% 1024.4 hPa 242.57 mm - - -
1788649825 14.44° C 89% 1024.3 hPa 218.19 mm - - -
1788649525 14.44° C 89% 1024.3 hPa 240.54 mm - - -
1788648625 14.44° C 89% 1024.5 hPa 204.22 mm - - -
1788648025 14.44° C 89% 1024.4 hPa 233.68 mm - - -
1788647724 14.44° C 89% 1024.3 hPa 210.57 mm - - -
1788647125 14.44° C 89% 1024.4 hPa 229.62 mm - - -

* Rain latest hour (hover to see other rain measurements)
** Current wind speed in m/s (hover to see current wind gust speed)